Location: Unspecified
(0.0000°N, 0.0000°E)
Time: 12:24:06
(UTC+00:00)

deb r/b Ablestar - Pass Details

Date: 21 April 2026
Orbit: 834 x 1371 km, 65.9° (Epoch: 10 May)

Event Time Altitude Azimuth Distance (km) Brightness Sun altitude
Exits shadow 03:14:19 46° 105° (ESE) 1,572 ? -40.1°
Drops below altitude 10° 03:21:41 10° 38° (NE) 3,306 ? -38.3°
Sets 03:24:45 0° 33° (NNE) 4,325 ? -37.5°
